FW2143 Weather Reports


time (UTC)temp
F
wind
direction
speed
knots
gust
knots
rain 1hr
in
rain 24hr
in
rain mn
in
humidity
%
barometer
mb
20210927070927 58 109 0.0 0.0 0.00 0.00 0.00 91 1013.6
20210927070426 58 109 0.0 0.0 0.00 0.00 0.00 91 1013.6
20210927065840 58 109 0.0 0.0 0.00 0.00 0.00 91 1013.3
20210927065340 58 109 0.0 0.0 0.00 0.00 0.00 91 1013.4
20210927064840 58 109 0.0 0.0 0.00 0.00 0.00 91 1013.4
20210927064341 58 109 0.0 0.0 0.00 0.00 0.00 91 1013.4
20210927063829 58 109 0.0 0.0 0.00 0.00 0.00 91 1013.4
20210927063330 58 109 0.0 0.0 0.00 0.00 0.00 91 1013.4
20210927062827 58 109 0.0 0.0 0.00 0.00 0.00 91 1013.4
20210927062328 58 109 0.0 0.0 0.00 0.00 0.00 91 1013.4
20210927061827 58 109 0.0 0.0 0.00 0.00 0.00 91 1013.4
20210927061231 58 109 0.0 0.0 0.00 0.00 0.00 91 1013.4
20210927060730 58 109 0.0 0.9 0.00 0.00 0.00 91 1013.4
20210927060127 58 109 0.0 0.9 0.00 0.00 0.00 91 1013.4
20210927055629 58 109 0.0 0.0 0.00 0.00 0.00 91 1013.6
20210927055128 58 109 0.0 0.0 0.00 0.00 0.00 91 1013.3
20210927054628 58 109 0.0 0.0 0.00 0.00 0.00 91 1013.4
20210927054129 58 109 0.0 0.0 0.00 0.00 0.00 91 1013.3
20210927053537 58 109 0.0 0.0 0.00 0.00 0.00 91 1013.3
20210927053029 58 109 0.0 0.0 0.00 0.00 0.00 91 1013.4
20210927052529 58 110 0.0 0.9 0.00 0.00 0.00 91 1013.3
20210927052030 58 110 0.0 0.9 0.00 0.00 0.00 91 1013.3
20210927051517 58 15 0.0 1.7 0.00 0.00 0.00 91 1013.2
20210927051004 58 353 0.0 1.7 0.00 0.00 0.00 91 1013.2
20210927050454 58 52 0.0 0.9 0.00 0.00 0.00 91 1013.3
20210927045944 58 52 0.0 2.6 0.00 0.00 0.00 91 1013.2
20210927045447 58 56 0.0 2.6 0.00 0.00 0.00 90 1013.3
20210927044940 58 105 0.0 1.7 0.00 0.00 0.00 91 1013.3
20210927044437 58 70 0.0 0.9 0.00 0.00 0.00 91 1013.2
20210927043930 58 147 0.0 0.9 0.00 0.00 0.00 91 1013.3
20210927043429 58 58 0.0 0.9 0.00 0.00 0.00 91 1013.3
20210927042926 58 74 0.0 0.0 0.00 0.00 0.00 91 1013.2
20210927042427 58 75 0.0 0.0 0.00 0.00 0.00 91 1013.1
20210927041928 58 75 0.0 0.0 0.00 0.00 0.00 91 1013.0
20210927041427 58 75 0.0 0.0 0.00 0.00 0.00 91 1013.0
20210927040930 58 75 0.0 0.0 0.00 0.00 0.00 91 1012.8
20210927040429 58 75 0.0 0.0 0.00 0.00 0.00 90 1012.8
20210927035929 58 75 0.0 0.9 0.00 0.00 0.00 90 1012.8
20210927035429 58 75 0.0 0.9 0.00 0.00 0.00 90 1012.7
20210927034934 58 55 0.0 0.9 0.00 0.00 0.00 90 1012.7
20210927034430 58 51 0.0 0.0 0.00 0.00 0.00 90 1012.7
20210927033929 58 52 0.0 0.0 0.00 0.00 0.00 89 1012.7
20210927033426 58 53 0.0 0.0 0.00 0.00 0.00 89 1012.7
20210927032927 58 52 0.0 0.0 0.00 0.00 0.00 89 1012.7
20210927032429 58 52 0.0 0.0 0.00 0.00 0.00 89 1012.6
20210927031931 59 53 0.0 0.0 0.00 0.00 0.00 89 1012.7
20210927031425 59 53 0.0 0.0 0.00 0.00 0.00 88 1012.7
20210927030929 59 53 0.0 0.0 0.00 0.00 0.00 88 1012.6
20210927030428 59 53 0.0 0.0 0.00 0.00 0.00 88 1012.5
20210927025930 59 53 0.0 0.0 0.00 0.00 0.00 88 1012.5
20210927025429 59 52 0.0 0.0 0.00 0.00 0.00 87 1012.5
20210927024929 59 52 0.0 0.0 0.00 0.00 0.00 87 1012.3
20210927024429 60 52 0.0 0.0 0.00 0.00 0.00 87 1012.4
20210927023929 60 52 0.0 0.0 0.00 0.00 0.00 87 1012.3
20210927023426 60 52 0.0 0.0 0.00 0.00 0.00 86 1012.3
20210927022929 60 47 0.0 0.0 0.00 0.00 0.00 86 1012.2
20210927022429 60 47 0.0 0.0 0.00 0.00 0.00 86 1012.2
20210927021929 60 47 0.0 0.0 0.00 0.00 0.00 86 1012.3
20210927021429 61 47 0.0 0.0 0.00 0.00 0.00 85 1012.3
20210927020929 61 47 0.0 0.0 0.00 0.00 0.00 85 1012.2
20210927020431 61 47 0.0 0.0 0.00 0.00 0.00 84 1012.3
20210927015930 61 47 0.0 0.0 0.00 0.00 0.00 83 1012.4
20210927015431 62 47 0.0 0.0 0.00 0.00 0.00 83 1012.3
20210927014930 62 47 0.0 0.0 0.00 0.00 0.00 82 1012.5
20210927014429 63 47 0.0 0.0 0.00 0.00 0.00 81 1012.5
20210927013928 63 47 0.0 0.0 0.00 0.00 0.00 81 1012.5
20210927013426 63 47 0.0 0.9 0.00 0.00 0.00 81 1012.5
20210927012930 63 47 0.0 0.9 0.00 0.00 0.00 80 1012.3
20210927012431 64 16 0.0 0.9 0.00 0.00 0.00 79 1012.5
20210927011928 64 16 0.0 0.9 0.00 0.00 0.00 78 1012.6
20210927011429 65 16 0.0 0.9 0.00 0.00 0.00 77 1012.9
20210927010929 66 15 0.0 0.9 0.00 0.00 0.00 75 1013.0
20210927010427 66 53 0.0 0.9 0.00 0.00 0.00 74 1013.0
20210927005930 67 105 0.0 0.9 0.00 0.00 0.00 75 1012.9
20210927005428 67 56 0.0 0.9 0.00 0.00 0.00 74 1012.9
20210927004926 68 61 0.0 0.9 0.00 0.00 0.00 72 1013.0
20210927004428 68 82 0.0 1.7 0.00 0.00 0.00 73 1013.0
20210927003927 68 134 0.0 1.7 0.00 0.00 0.00 72 1013.1
20210927003426 68 9 0.0 1.7 0.00 0.00 0.00 71 1013.1
20210927002929 69 46 0.0 3.5 0.00 0.00 0.00 72 1013.2
20210927002426 68 86 0.0 3.5 0.00 0.00 0.00 71 1013.1
20210927001928 68 92 0.0 3.5 0.00 0.00 0.00 70 1013.3
20210927001428 69 54 0.0 1.7 0.00 0.00 0.00 69 1013.3
20210927000929 69 123 0.0 1.7 0.00 0.00 0.00 69 1013.4
20210927000426 69 44 0.0 1.7 0.00 0.00 0.00 70 1013.4
20210926235930 69 127 0.0 3.5 0.00 0.00 0.00 69 1013.6
20210926235425 70 89 0.0 3.5 0.00 0.00 0.00 66 1013.7
20210926234924 71 19 0.9 4.3 0.00 0.00 0.00 65 1013.9
20210926234425 71 349 0.9 4.3 0.00 0.00 0.00 67 1013.8
20210926233927 71 82 0.0 3.5 0.00 0.00 0.00 66 1013.8
20210926233429 71 4 0.9 3.5 0.00 0.00 0.00 66 1013.8
20210926232930 71 53 0.9 3.5 0.00 0.00 0.00 65 1013.8
20210926232430 71 359 0.9 4.3 0.00 0.00 0.00 66 1013.8
20210926231929 71 107 0.0 4.3 0.00 0.00 0.00 65 1013.8
20210926231428 71 62 0.9 3.5 0.00 0.00 0.00 66 1013.9
20210926230927 72 11 0.9 3.5 0.00 0.00 0.00 65 1013.8
20210926230426 72 72 0.9 4.3 0.00 0.00 0.00 65 1013.9
20210926225929 72 101 0.9 4.3 0.00 0.00 0.00 64 1013.8
20210926225430 72 53 1.7 6.1 0.00 0.00 0.00 63 1013.8
20210926224928 73 322 1.7 6.1 0.00 0.00 0.00 63 1013.8
20210926224427 73 37 1.7 5.2 0.00 0.00 0.00 62 1014.0
20210926223926 74 330 0.9 5.2 0.00 0.00 0.00 60 1014.0
20210926223428 74 295 0.9 4.3 0.00 0.00 0.00 61 1014.0
20210926222928 74 44 0.9 6.1 0.00 0.00 0.00 60 1013.8
20210926222426 74 81 0.9 6.1 0.00 0.00 0.00 61 1013.8
20210926221926 73 122 0.9 5.2 0.00 0.00 0.00 62 1013.7
20210926221431 74 34 0.9 5.2 0.00 0.00 0.00 60 1014.0
20210926220931 74 123 0.9 7.0 0.00 0.00 0.00 62 1013.8
20210926220430 73 59 0.9 7.0 0.00 0.00 0.00 63 1013.9
20210926215927 73 71 1.7 7.0 0.00 0.00 0.00 62 1013.8
20210926215426 73 50 0.9 7.0 0.00 0.00 0.00 62 1013.7
20210926214926 74 151 0.9 5.2 0.00 0.00 0.00 61 1013.9
20210926214427 74 54 0.9 6.1 0.00 0.00 0.00 61 1013.9
20210926213926 75 51 0.9 6.1 0.00 0.00 0.00 60 1014.1
20210926213425 74 4 0.9 5.2 0.00 0.00 0.00 60 1014.0
20210926212926 75 310 1.7 5.2 0.00 0.00 0.00 61 1014.1
20210926212412 74 58 1.7 3.5 0.00 0.00 0.00 62 1014.0
20210926211913 74 56 0.9 3.5 0.00 0.00 0.00 62 1014.0
20210926211419 74 86 0.9 5.2 0.00 0.00 0.00 61 1014.0
20210926210908 75 351 1.7 5.2 0.00 0.00 0.00 60 1014.2
20210926210409 74 353 0.9 4.3 0.00 0.00 0.00 62 1014.2
20210926205908 74 35 0.9 5.2 0.00 0.00 0.00 62 1014.2
20210926205406 74 57 1.7 5.2 0.00 0.00 0.00 62 1014.2
20210926204906 74 45 1.7 5.2 0.00 0.00 0.00 62 1014.2
20210926204404 74 62 0.9 5.2 0.00 0.00 0.00 63 1014.4
20210926203904 74 117 0.9 5.2 0.00 0.00 0.00 63 1014.4
20210926203401 74 20 0.9 7.0 0.00 0.00 0.00 64 1014.3
20210926202856 73 115 1.7 7.0 0.00 0.00 0.00 63 1014.3
20210926202352 74 104 1.7 5.2 0.00 0.00 0.00 63 1014.4
20210926201850 74 0 0.9 5.2 0.00 0.00 0.00 62 1014.5
20210926201352 74 126 0.9 5.2 0.00 0.00 0.00 63 1014.4
20210926200849 74 147 0.9 4.3 0.00 0.00 0.00 63 1014.4
20210926200346 73 355 1.7 4.3 0.00 0.00 0.00 64 1014.4
20210926195845 73 106 0.9 4.3 0.00 0.00 0.00 63 1014.4
20210926195347 73 274 1.7 4.3 0.00 0.00 0.00 64 1014.3
20210926194849 73 336 0.9 5.2 0.00 0.00 0.00 63 1014.5
20210926194343 74 351 0.9 5.2 0.00 0.00 0.00 63 1014.6
20210926193838 74 75 0.9 6.1 0.00 0.00 0.00 63 1014.5
20210926193338 74 4 0.9 6.1 0.00 0.00 0.00 63 1014.7
20210926192841 74 4 0.9 4.3 0.00 0.00 0.00 62 1014.8
20210926192339 74 25 0.9 3.5 0.00 0.00 0.00 63 1014.7
20210926191840 73 4 0.9 5.2 0.00 0.00 0.00 64 1014.7
20210926191337 73 4 0.9 5.2 0.00 0.00 0.00 63 1014.7
20210926190837 74 58 0.9 4.3 0.00 0.00 0.00 63 1014.8
20210926190339 73 130 0.9 4.3 0.00 0.00 0.00 64 1014.5
20210926185844 74 287 0.9 4.3 0.00 0.00 0.00 63 1014.8
20210926185332 73 37 0.0 3.5 0.00 0.00 0.00 64 1014.6
20210926184826 72 34 0.9 2.6 0.00 0.00 0.00 64 1014.6
20210926184326 72 39 0.0 2.6 0.00 0.00 0.00 66 1014.6
20210926183827 72 70 0.0 2.6 0.00 0.00 0.00 67 1014.5
20210926183327 71 52 0.0 1.7 0.00 0.00 0.00 67 1014.6
20210926182827 71 288 0.0 1.7 0.00 0.00 0.00 69 1014.6
20210926182331 70 78 0.0 1.7 0.00 0.00 0.00 70 1014.5
20210926181823 69 56 0.0 1.7 0.00 0.00 0.00 72 1014.3
20210926181327 68 271 0.0 1.7 0.00 0.00 0.00 74 1014.3
20210926180827 68 290 0.0 1.7 0.00 0.00 0.00 75 1014.3
20210926180255 67 331 0.9 3.5 0.00 0.00 0.00 77 1014.4
20210926175753 66 19 0.9 3.5 0.00 0.00 0.00 76 1014.4
20210926175252 66 22 0.0 1.7 0.00 0.00 0.00 79 1014.2
20210926174751 66 70 0.0 1.7 0.00 0.00 0.00 79 1014.2
20210926174251 65 330 0.0 1.7 0.00 0.00 0.00 80 1014.1
20210926173743 65 44 0.0 0.9 0.00 0.00 0.00 80 1014.0
20210926173248 65 17 0.0 1.7 0.00 0.00 0.00 81 1014.1
20210926172731 64 356 0.0 1.7 0.00 0.00 0.00 82 1014.1
20210926172231 64 41 0.0 3.5 0.00 0.00 0.00 83 1014.0
20210926171731 63 11 0.0 3.5 0.00 0.00 0.00 82 1013.9
20210926171232 64 29 0.0 1.7 0.00 0.00 0.00 82 1013.9
20210926170727 63 335 0.0 1.7 0.00 0.00 0.00 82 1013.9
20210926170220 63 40 0.0 3.5 0.00 0.00 0.00 83 1013.8
20210926165701 63 49 0.0 3.5 0.00 0.00 0.00 82 1013.8
20210926165157 63 35 0.0 3.5 0.00 0.00 0.00 83 1013.8
20210926164659 62 37 0.0 3.5 0.00 0.00 0.00 84 1013.6
20210926164151 62 37 0.0 3.5 0.00 0.00 0.00 84 1013.4
20210926163655 62 27 0.0 2.6 0.00 0.00 0.00 85 1013.4
20210926163142 61 13 0.0 2.6 0.00 0.00 0.00 86 1013.1
20210926162640 61 107 0.0 1.7 0.00 0.00 0.00 86 1013.2
20210926162127 61 108 0.0 1.7 0.00 0.00 0.00 87 1013.2
20210926161631 60 82 0.0 1.7 0.00 0.00 0.00 88 1013.1
20210926161128 60 39 0.0 1.7 0.00 0.00 0.00 90 1012.9
20210926160624 59 352 0.0 1.7 0.00 0.00 0.00 90 1012.9
20210926160129 59 137 0.0 1.7 0.00 0.00 0.00 90 1012.9
20210926155553 59 52 0.0 1.7 0.00 0.00 0.00 90 1012.7
20210926155058 59 28 0.0 0.9 0.00 0.00 0.00 91 1012.8
20210926154552 58 106 0.0 0.9 0.00 0.00 0.00 91 1012.6
20210926154055 58 56 0.0 0.9 0.00 0.00 0.00 91 1012.5
20210926153537 58 72 0.0 0.9 0.00 0.00 0.00 91 1012.5
20210926153036 58 46 0.0 0.9 0.00 0.00 0.00 91 1012.4
20210926152531 58 56 0.0 0.9 0.00 0.00 0.00 91 1012.4
20210926152027 58 55 0.0 0.9 0.00 0.00 0.00 91 1012.5
20210926151534 58 117 0.0 0.9 0.00 0.00 0.00 91 1012.5
20210926151008 58 115 0.0 0.9 0.00 0.00 0.00 91 1012.4
20210926150510 58 110 0.0 0.9 0.00 0.00 0.00 91 1012.4
20210926145938 58 101 0.0 0.9 0.00 0.00 0.00 91 1012.2
20210926145433 57 66 0.0 0.9 0.00 0.00 0.00 91 1012.1
20210926144931 57 124 0.0 0.9 0.00 0.00 0.00 91 1012.0
20210926144433 57 110 0.0 0.9 0.00 0.00 0.00 91 1011.9
20210926143927 57 124 0.0 0.9 0.00 0.00 0.00 91 1012.0
20210926143428 57 315 0.0 0.0 0.00 0.00 0.00 91 1012.0
20210926142835 57 315 0.0 0.0 0.00 0.00 0.00 91 1011.9
20210926142329 57 315 0.0 0.0 0.00 0.00 0.00 92 1012.0
20210926141827 57 315 0.0 0.0 0.00 0.00 0.00 92 1011.9
20210926141308 57 315 0.0 0.0 0.00 0.00 0.00 91 1011.7
20210926140801 57 315 0.0 0.0 0.00 0.00 0.00 91 1011.7
20210926140246 57 327 0.0 0.0 0.00 0.00 0.00 92 1011.7
20210926135741 57 327 0.0 0.0 0.00 0.00 0.00 91 1011.7
20210926135226 57 327 0.0 0.9 0.00 0.00 0.00 91 1011.7
20210926134725 57 288 0.0 0.9 0.00 0.00 0.00 91 1011.6
20210926134226 57 295 0.0 0.0 0.00 0.00 0.00 91 1011.6
20210926133726 57 120 0.0 0.0 0.00 0.00 0.00 92 1011.6
20210926133226 57 120 0.0 0.0 0.00 0.00 0.00 92 1011.7
20210926132728 57 120 0.0 0.0 0.00 0.00 0.00 92 1011.7
20210926132157 57 120 0.0 0.0 0.00 0.00 0.00 92 1011.9
20210926131643 57 120 0.0 0.0 0.00 0.00 0.00 92 1011.9
20210926131125 57 120 0.0 0.9 0.00 0.00 0.00 92 1011.7
20210926130629 57 120 0.0 0.9 0.00 0.00 0.00 92 1011.5
20210926130128 57 121 0.0 0.0 0.00 0.00 0.00 92 1011.5
20210926125548 57 121 0.0 0.0 0.00 0.00 0.00 92 1011.6
20210926125040 57 122 0.0 0.0 0.00 0.00 0.00 92 1011.5
20210926124529 57 122 0.0 0.0 0.00 0.00 0.00 92 1011.6
20210926124026 57 122 0.0 0.0 0.00 0.00 0.00 92 1011.7
20210926123513 57 122 0.0 0.0 0.00 0.00 0.00 92 1011.7
20210926123012 57 122 0.0 0.9 0.00 0.00 0.00 91 1011.7
20210926122440 57 68 0.0 0.9 0.00 0.00 0.00 91 1011.7
20210926121943 57 98 0.0 0.0 0.00 0.00 0.00 91 1011.6
20210926121440 57 92 0.0 0.0 0.00 0.00 0.00 91 1011.6
20210926120937 57 93 0.0 0.0 0.00 0.00 0.00 91 1011.6
20210926120430 57 93 0.0 0.0 0.00 0.00 0.00 91 1011.4
20210926115846 57 90 0.0 0.9 0.00 0.00 0.00 91 1011.5
20210926115337 57 89 0.0 0.9 0.00 0.00 0.00 91 1011.3
20210926114843 57 86 0.0 0.0 0.00 0.00 0.00 91 1011.4
20210926114329 57 86 0.0 0.0 0.00 0.00 0.00 91 1011.5
20210926113830 57 110 0.0 0.0 0.00 0.00 0.00 91 1011.5
20210926113327 58 101 0.0 0.9 0.00 0.00 0.00 90 1011.3
20210926112812 58 105 0.0 0.0 0.00 0.00 0.00 90 1011.4
20210926112251 58 116 0.0 0.0 0.00 0.00 0.00 90 1011.3
20210926111735 58 120 0.0 0.9 0.00 0.00 0.00 90 1011.3
20210926111235 58 120 0.0 0.9 0.00 0.00 0.00 89 1011.4
20210926110740 58 113 0.0 0.0 0.00 0.00 0.00 88 1011.4
20210926110227 58 113 0.0 0.0 0.00 0.00 0.00 88 1011.4
20210926105726 58 113 0.0 0.0 0.00 0.00 0.00 88 1011.2
20210926105228 58 113 0.0 0.0 0.00 0.00 0.00 89 1011.3
20210926104726 58 113 0.0 0.0 0.00 0.00 0.00 89 1011.3
20210926104212 58 113 0.0 0.0 0.00 0.00 0.00 89 1011.2
20210926103628 58 113 0.0 0.0 0.00 0.00 0.00 90 1011.2
20210926103126 58 113 0.0 0.0 0.00 0.00 0.00 90 1011.4
20210926102628 58 113 0.0 0.0 0.00 0.00 0.00 91 1011.4
20210926102125 58 113 0.0 0.0 0.00 0.00 0.00 91 1011.4
20210926101626 58 113 0.0 0.0 0.00 0.00 0.00 91 1011.4
20210926101128 58 113 0.0 0.0 0.00 0.00 0.00 91 1011.4
20210926100626 58 113 0.0 0.0 0.00 0.00 0.00 91 1011.5
20210926100125 58 113 0.0 0.0 0.00 0.00 0.00 91 1011.5
20210926095626 58 113 0.0 0.0 0.00 0.00 0.00 90 1011.6
20210926095128 58 113 0.0 0.0 0.00 0.00 0.00 90 1011.6
20210926094533 58 113 0.0 0.0 0.00 0.00 0.00 90 1011.7
20210926093942 58 113 0.0 0.0 0.00 0.00 0.00 90 1011.9
20210926093426 58 113 0.0 0.0 0.00 0.00 0.00 90 1011.7
20210926092929 58 114 0.0 0.0 0.00 0.00 0.00 89 1011.7
20210926092428 58 114 0.0 0.0 0.00 0.00 0.00 89 1011.9
20210926091923 58 114 0.0 0.0 0.00 0.00 0.00 90 1012.0
20210926091428 58 114 0.0 0.0 0.00 0.00 0.00 89 1012.0
20210926090852 58 114 0.0 0.0 0.00 0.00 0.00 89 1011.7
20210926090329 58 114 0.0 0.0 0.00 0.00 0.00 89 1011.6
20210926085828 58 114 0.0 0.0 0.00 0.00 0.00 89 1011.6
20210926085232 58 114 0.0 0.0 0.00 0.00 0.00 88 1011.7
20210926084726 59 114 0.0 0.0 0.00 0.00 0.00 88 1011.6
20210926084223 59 114 0.0 0.0 0.00 0.00 0.00 88 1011.7
20210926083726 59 114 0.0 0.0 0.00 0.00 0.00 87 1011.7
20210926083226 59 114 0.0 0.0 0.00 0.00 0.00 88 1012.0
20210926082728 59 114 0.0 0.0 0.00 0.00 0.00 87 1011.9
20210926082212 59 114 0.0 0.0 0.00 0.00 0.00 87 1012.0
20210926081704 60 114 0.0 0.0 0.00 0.00 0.00 86 1011.9
20210926081129 60 114 0.0 0.0 0.00 0.00 0.00 85 1011.7
20210926080631 60 114 0.0 0.0 0.00 0.00 0.00 84 1011.7
20210926080127 60 114 0.0 0.0 0.00 0.00 0.00 85 1011.9
20210926075625 60 114 0.0 0.0 0.00 0.00 0.00 83 1011.9
20210926075128 60 114 0.0 0.0 0.00 0.00 0.00 82 1011.9
20210926074531 60 114 0.0 0.0 0.00 0.00 0.00 82 1011.7
20210926074029 60 114 0.0 0.0 0.00 0.00 0.00 83 1012.0
20210926073528 60 114 0.0 0.0 0.00 0.00 0.00 83 1011.7
20210926073009 61 114 0.0 0.0 0.00 0.00 0.00 82 1011.7
20210926072434 61 114 0.0 0.0 0.00 0.00 0.00 80 1011.9
20210926071926 61 114 0.0 0.0 0.00 0.00 0.00 80 1011.9
20210926071428 61 114 0.0 0.0 0.00 0.00 0.00 79 1011.9